• In Deutschland
  • Länderverzeichnis
  • Für 7 Tage
  • Wassertemperatur
  • Satellitenkarten
  • Wetterkarte
  • Widgets
  • user-avatar
    Anmelden

    Stündliche Wetter Valledupar

    Heute, 22 Juli, Sonntag

    Zeit Temperatur Niederschläge Wind Luftdruck Luftfeuchtigkeit
    00:00 +29°C° 0,3 mm 2 m/S 742 mmHg 71%
    01:00 +29°C° 0,3 mm 1 m/S 742 mmHg 72%
    02:00 +29°C° 0,3 mm 1 m/S 742 mmHg 72%
    03:00 +29°C° 0,3 mm 1 m/S 742 mmHg 73%
    04:00 +28°C° 0,3 mm 1 m/S 742 mmHg 73%
    05:00 +29°C° 0,4 mm 1 m/S 742 mmHg 72%
    06:00 +29°C° 0,4 mm 1 m/S 743 mmHg 70%
    07:00 +30°C° 0,4 mm 1 m/S 743 mmHg 68%
    08:00 +32°C° 0,2 mm 1 m/S 743 mmHg 61%
    09:00 +34°C° 0,2 mm 1 m/S 743 mmHg 54%
    10:00 +37°C° 0,2 mm 2 m/S 743 mmHg 47%
    11:00 +38°C° 0,3 mm 2 m/S 743 mmHg 46%
    12:00 +38°C° 0,3 mm 2 m/S 743 mmHg 45%
    13:00 +39°C° 0,3 mm 2 m/S 742 mmHg 43%
    14:00 +38°C° 1 mm 2 m/S 742 mmHg 45%
    15:00 +37°C° 1 mm 2 m/S 741 mmHg 47%
    16:00 +37°C° 1 mm 2 m/S 740 mmHg 49%
    17:00 +35°C° 1,1 mm 2 m/S 741 mmHg 56%
    18:00 +32°C° 1,1 mm 1 m/S 741 mmHg 63%
    19:00 +30°C° 1,1 mm 1 m/S 741 mmHg 70%
    20:00 +30°C° 0,7 mm 1 m/S 742 mmHg 71%
    21:00 +30°C° 0,7 mm 1 m/S 742 mmHg 73%
    22:00 +29°C° 0,7 mm 1 m/S 743 mmHg 74%
    23:00 +29°C° 0,9 mm 1 m/S 743 mmHg 76%

    Morgen, 23 Juli, Montag

    Zeit Temperatur Niederschläge Wind Luftdruck Luftfeuchtigkeit
    00:00 +29°C° 0,9 mm 1 m/S 743 mmHg 78%
    01:00 +28°C° 0,9 mm 1 m/S 742 mmHg 80%
    02:00 +28°C° 1,6 mm 1 m/S 742 mmHg 81%
    03:00 +28°C° 1,6 mm 1 m/S 742 mmHg 82%
    04:00 +28°C° 1,6 mm 1 m/S 742 mmHg 84%
    05:00 +28°C° 1,8 mm 1 m/S 742 mmHg 83%
    06:00 +28°C° 1,8 mm 1 m/S 743 mmHg 82%
    07:00 +29°C° 1,8 mm 1 m/S 743 mmHg 82%
    08:00 +30°C° 0,9 mm 1 m/S 744 mmHg 77%
    09:00 +31°C° 0,9 mm 1 m/S 744 mmHg 71%
    10:00 +34°C° 0,9 mm 2 m/S 744 mmHg 66%
    11:00 +35°C° 0,4 mm 2 m/S 743 mmHg 62%
    12:00 +36°C° 0,4 mm 2 m/S 743 mmHg 57%
    13:00 +37°C° 0,4 mm 2 m/S 742 mmHg 53%
    14:00 +36°C° 0,8 mm 2 m/S 742 mmHg 54%
    15:00 +36°C° 0,8 mm 2 m/S 741 mmHg 54%
    16:00 +36°C° 0,8 mm 2 m/S 741 mmHg 55%
    17:00 +33°C° 1,1 mm 1 m/S 741 mmHg 62%
    18:00 +32°C° 1,1 mm 1 m/S 741 mmHg 69%
    19:00 +30°C° 1,1 mm 1 m/S 742 mmHg 76%
    20:00 +29°C° 0,8 mm 1 m/S 742 mmHg 78%
    21:00 +29°C° 0,8 mm 1 m/S 743 mmHg 80%
    22:00 +29°C° 0,8 mm 1 m/S 744 mmHg 82%
    23:00 +29°C° 0,3 mm 1 m/S 743 mmHg 82%

    übermorgen, 24 Juli, Dienstag

    Zeit Temperatur Niederschläge Wind Luftdruck Luftfeuchtigkeit
    00:00 +28°C° 0,3 mm 1 m/S 743 mmHg 83%
    01:00 +28°C° 0,3 mm 1 m/S 743 mmHg 84%
    02:00 +28°C° 0,4 mm 1 m/S 743 mmHg 84%
    03:00 +28°C° 0,4 mm 1 m/S 743 mmHg 84%
    04:00 +28°C° 0,4 mm 1 m/S 743 mmHg 84%
    05:00 +28°C° 0,6 mm 1 m/S 743 mmHg 84%
    06:00 +28°C° 0,6 mm 1 m/S 744 mmHg 83%
    07:00 +29°C° 0,6 mm 1 m/S 744 mmHg 82%
    08:00 +30°C° 0,4 mm 1 m/S 745 mmHg 78%
    09:00 +31°C° 0,4 mm 1 m/S 745 mmHg 74%
    10:00 +32°C° 0,4 mm 1 m/S 745 mmHg 69%
    11:00 +32°C° 0,4 mm 1 m/S 745 mmHg 67%
    12:00 +33°C° 0,4 mm 1 m/S 744 mmHg 64%
    13:00 +34°C° 0,4 mm 1 m/S 744 mmHg 61%
    14:00 +33°C° 0,8 mm 1 m/S 743 mmHg 60%
    15:00 +33°C° 0,8 mm 1 m/S 743 mmHg 59%
    16:00 +33°C° 0,8 mm 1 m/S 743 mmHg 59%
    17:00 +32°C° 0,9 mm 1 m/S 743 mmHg 63%
    18:00 +30°C° 0,9 mm 1 m/S 743 mmHg 68%
    19:00 +29°C° 0,9 mm 1 m/S 744 mmHg 73%
    20:00 +29°C° 0,6 mm 1 m/S 744 mmHg 74%
    21:00 +29°C° 0,6 mm 1 m/S 745 mmHg 74%
    22:00 +28°C° 0,6 mm 1 m/S 745 mmHg 75%
    23:00 +28°C° 0,2 mm 1 m/S 745 mmHg 75%

    25 Juli, Mittwoch

    Zeit Temperatur Niederschläge Wind Luftdruck Luftfeuchtigkeit
    00:00 +28°C° 0,2 mm 1 m/S 744 mmHg 75%
    01:00 +28°C° 0,2 mm 1 m/S 744 mmHg 75%
    02:00 +28°C° 0,2 mm 1 m/S 744 mmHg 74%
    03:00 +27°C° 0,2 mm 1 m/S 744 mmHg 73%
    04:00 +27°C° 0,2 mm 1 m/S 744 mmHg 72%
    05:00 +28°C° 0,1 mm 1 m/S 744 mmHg 69%
    06:00 +28°C° 0,1 mm 1 m/S 744 mmHg 67%
    07:00 +27°C° 0,1 mm 0 m/S 745 mmHg 65%
    08:00 +31°C° 0 mm 1 m/S 745 mmHg 59%
    09:00 +33°C° 0 mm 1 m/S 745 mmHg 53%
    10:00 +35°C° 0 mm 1 m/S 745 mmHg 46%
    11:00 +36°C° 0,1 mm 1 m/S 745 mmHg 44%
    12:00 +37°C° 0,1 mm 1 m/S 744 mmHg 42%
    13:00 +38°C° 0,1 mm 2 m/S 744 mmHg 40%
    14:00 +38°C° 0,5 mm 2 m/S 743 mmHg 43%
    15:00 +37°C° 0,5 mm 2 m/S 743 mmHg 46%
    16:00 +36°C° 0,5 mm 2 m/S 742 mmHg 49%
    17:00 +33°C° 0,4 mm 1 m/S 742 mmHg 56%
    18:00 +31°C° 0,4 mm 1 m/S 743 mmHg 64%
    19:00 +29°C° 0,4 mm 1 m/S 743 mmHg 72%
    20:00 +29°C° 0,1 mm 1 m/S 743 mmHg 74%
    21:00 +29°C° 0,1 mm 1 m/S 744 mmHg 76%
    22:00 +28°C° 0,1 mm 1 m/S 744 mmHg 78%
    23:00 +28°C° 0,1 mm 1 m/S 744 mmHg 79%

    26 Juli, Donnerstag

    Zeit Temperatur Niederschläge Wind Luftdruck Luftfeuchtigkeit
    00:00 +28°C° 0,1 mm 1 m/S 744 mmHg 81%
    01:00 +28°C° 0,1 mm 1 m/S 743 mmHg 83%
    02:00 +27°C° 0,3 mm 1 m/S 743 mmHg 83%
    03:00 +27°C° 0,3 mm 1 m/S 743 mmHg 83%
    04:00 +27°C° 0,3 mm 1 m/S 743 mmHg 84%
    05:00 +28°C° 0,4 mm 1 m/S 743 mmHg 81%
    06:00 +28°C° 0,4 mm 1 m/S 744 mmHg 79%
    07:00 +29°C° 0,4 mm 1 m/S 744 mmHg 77%
    08:00 +31°C° 0,4 mm 1 m/S 745 mmHg 70%
    09:00 +33°C° 0,4 mm 1 m/S 745 mmHg 63%
    10:00 +35°C° 0,4 mm 1 m/S 745 mmHg 56%
    11:00 +35°C° 0,7 mm 1 m/S 744 mmHg 56%
    12:00 +35°C° 0,7 mm 1 m/S 744 mmHg 55%
    13:00 +36°C° 0,7 mm 1 m/S 743 mmHg 54%
    14:00 +35°C° 1,2 mm 1 m/S 743 mmHg 57%
    15:00 +34°C° 1,2 mm 1 m/S 742 mmHg 59%
    16:00 +34°C° 1,2 mm 1 m/S 742 mmHg 61%
    17:00 +32°C° 1,3 mm 1 m/S 742 mmHg 67%
    18:00 +30°C° 1,3 mm 1 m/S 743 mmHg 73%
    19:00 +29°C° 1,3 mm 1 m/S 743 mmHg 79%
    20:00 +28°C° 0,6 mm 1 m/S 743 mmHg 80%
    21:00 +28°C° 0,6 mm 1 m/S 744 mmHg 80%
    22:00 +28°C° 0,6 mm 1 m/S 744 mmHg 80%
    23:00 +28°C° 0,5 mm 1 m/S 744 mmHg 80%

    27 Juli, Freitag

    Zeit Temperatur Niederschläge Wind Luftdruck Luftfeuchtigkeit
    00:00 +27°C° 0,5 mm 1 m/S 744 mmHg 81%
    01:00 +27°C° 0,5 mm 1 m/S 743 mmHg 81%
    02:00 +27°C° 0,5 mm 1 m/S 743 mmHg 82%
    03:00 +27°C° 0,5 mm 1 m/S 743 mmHg 82%
    04:00 +25°C° 0,5 mm 0 m/S 743 mmHg 82%
    05:00 +26°C° 0,8 mm 0 m/S 744 mmHg 80%
    06:00 +26°C° 0,8 mm 0 m/S 744 mmHg 79%
    07:00 +26°C° 0,8 mm 0 m/S 745 mmHg 77%
    08:00 +28°C° 0,9 mm 0 m/S 745 mmHg 72%
    09:00 +31°C° 0,9 mm 1 m/S 745 mmHg 67%
    10:00 +32°C° 0,9 mm 1 m/S 745 mmHg 62%
    11:00 +33°C° 0,5 mm 1 m/S 745 mmHg 59%
    12:00 +33°C° 0,5 mm 1 m/S 744 mmHg 56%
    13:00 +34°C° 0,5 mm 1 m/S 743 mmHg 53%
    14:00 +34°C° 0,7 mm 1 m/S 743 mmHg 54%
    15:00 +33°C° 0,7 mm 1 m/S 742 mmHg 55%
    16:00 +33°C° 0,7 mm 1 m/S 742 mmHg 56%
    17:00 +32°C° 0,7 mm 1 m/S 742 mmHg 62%
    18:00 +30°C° 0,7 mm 1 m/S 743 mmHg 67%
    19:00 +29°C° 0,7 mm 1 m/S 743 mmHg 72%
    20:00 +29°C° 0,6 mm 1 m/S 744 mmHg 74%
    21:00 +28°C° 0,6 mm 1 m/S 744 mmHg 76%
    22:00 +28°C° 0,6 mm 1 m/S 744 mmHg 77%
    23:00 +28°C° 0,8 mm 1 m/S 744 mmHg 78%
    Mehr zeigen